Regional Weather Roundup
Issued by NWS

Home | Current Version | Previous Version | Text Only | Print | Product List | Glossary Off
Versions: 1 2 3 4 5 6 7 8 9 10 11 12 13 14 15 16 17 18 19 20 21 22 23 24 25 26 27 28 29 30 31 32 33 34 35 36 37 38 39 40 41 42 43 44 45 46 47 48 49 50

000
ASUS43 KIND 212109
RWRIN

WEATHER ROUNDUP FOR INDIANA
NATIONAL WEATHER SERVICE INDIANAPOLIS IN
400 PM EST FRI NOV 21 2014

NOTE: "FAIR" INDICATES FEW OR NO CLOUDS BELOW 12,000 FEET WITH NO
SIGNIFICANT WEATHER AND/OR OBSTRUCTIONS TO VISIBILITY.

* - STATION DOES NOT REPORT WEATHER SUCH AS PRECIPITATION OR FOG.

+ - STATION NOT QUALITY CONTROLLED BY THE NATIONAL WEATHER SERVICE.
    USE DATA WITH CAUTION...ESPECIALLY DEWPOINT AND RELATIVE
    HUMIDITY OBSERVATIONS.

INZ001>003-010>013-019-020-212200-
NORTHWEST INDIANA

CITY           SKY/WX    TMP DP  RH WIND       PRES   REMARKS
KNOX *+        SUNNY     32   7  34 S12       30.39F WCI  23
LA PORTE +     SUNNY     33   9  36 S13       30.38F WCI  24
MICHIGAN CITY+ SUNNY     32   5  32 S15       30.38F WCI  22
MONTICELLO +   SUNNY     31  12  45 S7        30.40F WCI  24
RENSSELAER +   SUNNY     32  10  40 S12       30.39F WCI  23
VALPARAISO     SUNNY     32   5  32 S13       30.38F WCI  22

$$

LMZ046-743>745-212200-
SOUTHERN LAKE MICHIGAN

STATION/POSITION TIME  TEMP WIND        PRES
                       AIR  DIR/SP/G
                 (UTC) (F)  (DEG/KT/KT) (MB)
MICHIGAN CITY    2100   32  150/ 14/ 19   N/A

$$

INZ004-005-014>016-021>024-212200-
NORTH CENTRAL INDIANA

CITY           SKY/WX    TMP DP  RH WIND       PRES   REMARKS
ELKHART        SUNNY     30  10  43 S8        30.39F WCI  23
GOSHEN         SUNNY     30  12  47 S10       30.39F WCI  21
LOGANSPORT +   SUNNY     30  12  47 SE10      30.43S WCI  21
PERU/GRISSOM   SUNNY     30  16  54 S10       30.41F WCI  21
ROCHESTER +    SUNNY     32  12  43 S10       30.42S WCI  24
SOUTH BEND     SUNNY     31  11  43 S12       30.38F WCI  22
WARSAW +       SUNNY     30  12  47 S8        30.40F WCI  23

$$

INZ006>009-017-018-025>027-212200-
NORTHEAST INDIANA

CITY           SKY/WX    TMP DP  RH WIND       PRES   REMARKS
ANGOLA *+      SUNNY     27  12  54 S7        30.39F WCI  19
AUBURN +       SUNNY     30  12  47 SE3       30.42F
FORT WAYNE     SUNNY     27  13  55 SE7       30.43F WCI  19
HUNTINGTON +   SUNNY     28  12  51 S8        30.42S WCI  20

$$

INZ028-029-035-036-043>045-051>053-212200-
WEST CENTRAL INDIANA

CITY           SKY/WX    TMP DP  RH WIND       PRES   REMARKS
GREENCASTLE +  SUNNY     34  12  40 SE8       30.40F WCI  27
LAFAYETTE      SUNNY     32  12  43 S10       30.41F WCI  24
TERRE HAUTE    SUNNY     37  10  32 SE8       30.40F

$$

INZ030>032-037>040-046>048-054>057-064-065-212200-
CENTRAL INDIANA

CITY           SKY/WX    TMP DP  RH WIND       PRES   REMARKS
ANDERSON       SUNNY     30   9  40 SE12      30.44S WCI  21
CP ATTERBURY + SUNNY     34   9  35 S8        30.43S WCI  27
COLUMBUS       SUNNY     36   7  30 S8        30.44S
FRANKFORT +      N/A    N/A N/A N/A MISG        N/A
GREENWOOD *+   SUNNY     34   7  32 SE8       30.42F WCI  27
INDIANAPOLIS   MOSUNNY   33  10  38 SE10      30.40F WCI  25
-EAGLE CREEK   SUNNY     33  10  38 SE9       30.41F WCI  25
KOKOMO *+      SUNNY     30  14  51 S12       30.42S WCI  21
MARION +       SUNNY     30  12  46 S10       30.43R WCI  21
MT COMFORT *+  SUNNY     32   0  25 S8        30.42F WCI  25
SHELBYVILLE    SUNNY     34  13  41 SE10      30.42F WCI  26
ZIONSVILLE +   SUNNY     32  10  39 SE9       30.41F WCI  24

$$

INZ033-034-041-042-049-050-058-059-212200-
EAST CENTRAL INDIANA

CITY           SKY/WX    TMP DP  RH WIND       PRES   REMARKS
MUNCIE         SUNNY     31   9  39 S8        30.42F WCI  23

$$

INZ060-061-067>069-081>083-085>088-212200-
SOUTHWEST INDIANA

CITY           SKY/WX    TMP DP  RH WIND       PRES   REMARKS
EVANSVILLE     SUNNY     42  18  37 E7        30.39F
HUNTINGBURG *+ SUNNY     39  16  38 E12       30.40F
WASHINGTON +   SUNNY     38  16  40 SE9       30.41F

$$

INZ062-063-066-070>080-084-089>092-212200-
SOUTH CENTRAL AND SOUTHEAST INDIANA

CITY           SKY/WX    TMP DP  RH WIND       PRES   REMARKS
BLOOMINGTON    SUNNY     36   7  29 SE9       30.40F

$$




USA.gov is the U.S. government's official web portal to all federal, state and local government web resources and services.